This is the latest recevied weather packets stored in our database for station/object N5CSU. If no packets are shown the sender has not sent any weather packets the latest 10 day(s).
| Time | Temp. | Humidity | Pressure | Rain* | Wind** | Luminosity | Snow |
|---|---|---|---|---|---|---|---|
| 1777742494 | 21.67° C | 42% | 1022.2 hPa | 0 mm | - | 18 W/m² | - |
| 1777742189 | 21.67° C | 40% | 1022.4 hPa | 0 mm | - | 26 W/m² | - |
| 1777741886 | 21.67° C | 42% | 1022.5 hPa | 0 mm | - | 109 W/m² | - |
| 1777741584 | 21.67° C | 40% | 1022.6 hPa | 0 mm | - | 135 W/m² | - |
| 1777741280 | 21.67° C | 43% | 1022.6 hPa | 0 mm | - | 180 W/m² | - |
| 1777740977 | 21.67° C | 42% | 1022.6 hPa | 0 mm | - | 80 W/m² | - |
| 1777740674 | 21.11° C | 45% | 1022.6 hPa | 0 mm | - | 16 W/m² | - |
| 1777740370 | 21.11° C | 44% | 1022.3 hPa | 0 mm | - | 82 W/m² | - |
| 1777740067 | 21.11° C | 44% | 1022.5 hPa | 0 mm | - | 167 W/m² | - |
| 1777739763 | 21.11° C | 44% | 1022.6 hPa | 0 mm | - | 288 W/m² | - |
| 1777739460 | 20.56° C | 49% | 1022.6 hPa | 0 mm | - | 129 W/m² | - |
| 1777739156 | 20.56° C | 47% | 1022.5 hPa | 0 mm | - | 330 W/m² | - |
| 1777738854 | 20.56° C | 47% | 1022.7 hPa | 0 mm | - | 134 W/m² | - |
| 1777738551 | 20.56° C | 45% | 1022.5 hPa | 0 mm | - | 18 W/m² | - |
| 1777738248 | 20.56° C | 47% | 1022.6 hPa | 0 mm | - | 134 W/m² | - |
| 1777737946 | 20° C | 53% | 1022.5 hPa | 0 mm | - | 526 W/m² | - |
| 1777737644 | 20° C | 53% | 1022.5 hPa | 0 mm | - | 518 W/m² | - |
| 1777737343 | 19.44° C | 48% | 1022.6 hPa | 0 mm | - | 466 W/m² | - |
| 1777737039 | 19.44° C | 54% | 1022.5 hPa | 0 mm | - | 14 W/m² | - |
| 1777736735 | 18.89° C | 53% | 1022.6 hPa | 0 mm | - | 14 W/m² | - |
| 1777736107 | 18.89° C | 55% | 1022.5 hPa | 0 mm | - | 14 W/m² | - |
| 1777735804 | 18.89° C | 52% | 1022.4 hPa | 0 mm | - | 14 W/m² | - |
| 1777735501 | 18.89° C | 55% | 1022.5 hPa | 0 mm | - | 14 W/m² | - |
| 1777735199 | 18.33° C | 55% | 1022.3 hPa | 0 mm | - | 13 W/m² | - |
| 1777734896 | 18.33° C | 62% | 1022.4 hPa | 0 mm | - | 13 W/m² | - |
* Rain latest hour (hover to see other rain measurements)
** Current wind speed in m/s (hover to see current wind gust speed)